Content
SEND FEEDBACK

Daily
Averages
Monthly
Summary
Mexico

ISLA MUJERES, QUINTANA ROO


Home > North America > Mexico > Quintana Roo
Elevation: 16 feet     Latitude: 21 14N     Longitude: 086 44W

WEATHER
 
SELECT A DAY
Number of Records: 163,654;   Date Range: 1/1/95 - 7/20/14
 
SHARE

PRINT THIS DATA

[ ← Previous Day ]
WEATHER ALMANAC - JUNE 26, 2013
[ Next Day → ]
[ °C ]   °F
We're sorry. There is no daily almanac available for Isla Mujeres, Quintana Roo on June 26, 2013.
WEATHER BY HOUR - JUNE 26, 2013
[ °C ]   °F
Local TimeTemperatureDewpointHumidityBarometerVisibilityWind DirectionWind SpeedGust SpeedPrecipitationEventsConditions
1:41 AM77.0 °F73.4 °F89 %30.00 in7.0 miWNW (300°)3.5 mphScattered Clouds
2:41 AM77.0 °F73.4 °F89 %29.98 in7.0 miCalmScattered Clouds
3:47 AM75.2 °F73.4 °F94 %29.97 in7.0 miNW (320°)2.3 mphScattered Clouds
4:42 AM73.4 °F71.6 °F94 %29.96 in7.0 miWNW (290°)3.5 mphMostly Cloudy
5:42 AM73.4 °F71.6 °F94 %29.97 in7.0 miCalmMostly Cloudy
6:41 AM73.4 °F71.6 °F94 %29.99 in7.0 miCalmMostly Cloudy
7:42 AM78.8 °F75.2 °F89 %29.99 in7.0 miCalmMostly Cloudy
8:45 AM84.2 °F75.2 °F74 %30.01 in7.0 miENE (70°)6.9 mphMostly Cloudy
9:49 AM84.2 °F75.2 °F74 %30.02 in7.0 miEast (100°)8.1 mphScattered Clouds
10:44 AM86.0 °F77.0 °F74 %30.02 in7.0 miESE (110°)10.4 mphMostly Cloudy
11:46 AM86.0 °F75.2 °F70 %30.02 in7.0 miENE (70°)6.9 mphMostly Cloudy
12:44 PM87.8 °F75.2 °F66 %30.02 in7.0 miESE (110°)8.1 mphMostly Cloudy
1:42 PM87.8 °F75.2 °F66 %30.01 in7.0 miEast (100°)6.9 mphMostly Cloudy
2:42 PM89.6 °F75.2 °F62 %29.99 in7.0 miEast (100°)8.1 mphMostly Cloudy
3:47 PM86.0 °F73.4 °F66 %29.98 in7.0 miEast (100°)9.2 mphMostly Cloudy
4:40 PM84.2 °F75.2 °F74 %29.98 in7.0 miEast (90°)6.9 mphMostly Cloudy
5:44 PM84.2 °F75.2 °F74 %29.99 in7.0 miEast (90°)4.6 mphMostly Cloudy
6:40 PM84.2 °F75.2 °F74 %30.00 in7.0 miENE (70°)5.8 mphMostly Cloudy
7:41 PM82.4 °F77.0 °F84 %29.96 in7.0 miENE (60°)3.5 mphMostly Cloudy
8:44 PM80.6 °F75.2 °F84 %29.97 in7.0 miEast (80°)3.5 mphMostly Cloudy
9:48 PM80.6 °F77.0 °F89 %29.95 in7.0 miENE (70°)5.8 mphMostly Cloudy
10:47 PM80.6 °F77.0 °F89 %30.02 in7.0 miEast (90°)5.8 mphMostly Cloudy
11:46 PM78.8 °F77.0 °F94 %30.02 in7.0 miCalmMostly Cloudy
Hourly data recorded from MMUN, located miles away from Isla Mujeres, Quintana Roo







STORIES FROM OUR PARTNERS